Weather History for Sheridan, WY

Change the Weather History Date:

Friday, March 7, 2014

  Actual Average Record
Temperature  
Mean Temperature 36 °F 32 °F  
Max Temperature 44 °F 45 °F 65 °F (1986)
Min Temperature 28 °F 19 °F -16 °F (1920)
Degree Days  
Heating Degree Days 29 33  
Month to date heating degree days 292 236  
Since 1 July heating degree days 6042 5771  
Cooling Degree Days 0 0  
Month to date cooling degree days 0 0  
Year to date cooling degree days 0 0  
Moisture  
Dew Point 29 °F    
Average Humidity 81    
Maximum Humidity 100    
Minimum Humidity 62    
Precipitation  
Precipitation 0.01 in 0.03 in 0.15 in (2000)
Month to date precipitation 0.18 0.17  
Year to date precipitation 2.03 1.27  
Sea Level Pressure  
Sea Level Pressure 30.04 in    
Wind  
Wind Speed 3 mph (NNW)    
Max Wind Speed 18 mph    
Max Gust Speed 21 mph    
Visibility 5 miles    
Events Fog , Snow    
T = Trace of Precipitation, MM = Missing Value Source: NWS Daily Summary

Daily Weather History Graph

Daily Weather History Graph

Search for Another Location

Airport:

Trip Planner

Search our weather history database for the weather conditions in past years. The results will help you decide how hot, cold, wet, or windy it might be!

Date:

Astronomy

Mar. 07, 2014 Rise Set
Actual Time 6:34 AM MST 6:03 PM MST
Civil Twilight 6:05 AM MST 6:32 PM MST
Nautical Twilight 5:31 AM MST 7:06 PM MST
Astronomical Twilight 4:57 AM MST 7:40 PM MST
Moon 10:14 AM MST (3/7) 12:26 AM MST (3/7)
Length of Visible Light 12h 27m
Length of Day
11h 28m
Waxing Crescent, 42% of the Moon is Illuminated
Mar 7
Waxing Crescent
Mar 8
First Quarter
Mar 16
Full
Mar 23
Last Quarter
Mar 30
New

Hourly Weather History & Observations

Time (MST) Temp. Windchill Dew Point Humidity Pressure Visibility Wind Dir Wind Speed Gust Speed Precip Events Conditions
12:22 AM 34.0 °F 23.8 °F 32.0 °F 92% 29.87 in 10.0 mi NW 16.1 mph - N/A   Overcast
12:37 AM 34.0 °F 31.0 °F 33.1 °F 96% 29.88 in 10.0 mi NNW 3.5 mph - N/A   Overcast
12:44 AM 34.0 °F 25.5 °F 32.0 °F 92% 29.88 in 10.0 mi NW 11.5 mph - N/A   Overcast
12:51 AM 33.8 °F 24.8 °F 32.0 °F 93% 29.90 in 10.0 mi WNW 12.7 mph - N/A   Overcast
12:53 AM 34.0 °F 24.6 °F 32.0 °F 92% 29.96 in 10.0 mi WNW 13.8 mph - N/A   Overcast
1:16 AM 32.0 °F 24.2 °F 30.9 °F 96% 29.90 in 2.0 mi WNW 9.2 mph - N/A   Overcast
1:24 AM 32.0 °F 26.4 °F 30.9 °F 96% 29.91 in 3.0 mi West 5.8 mph - N/A   Overcast
1:49 AM 32.0 °F 24.2 °F 30.2 °F 93% 29.92 in 3.0 mi NW 9.2 mph - 0.00 in Snow Light Snow
1:53 AM 32.0 °F 24.2 °F 30.9 °F 96% 29.98 in 3.0 mi WNW 9.2 mph - 0.00 in Snow Light Snow
2:53 AM 30.9 °F 22.2 °F 28.9 °F 92% 29.99 in 3.0 mi NW 10.4 mph - 0.01 in   Overcast
2:56 AM 30.9 °F 22.8 °F 30.0 °F 96% 29.93 in 1.8 mi NNW 9.2 mph - N/A   Overcast
3:05 AM 30.9 °F 23.5 °F 28.9 °F 92% 29.92 in 0.5 mi North 8.1 mph - N/A Fog Light Freezing Fog
3:34 AM 30.0 °F 23.2 °F 28.9 °F 96% 29.92 in 0.2 mi NNE 6.9 mph - N/A Fog Light Freezing Fog
3:53 AM 30.0 °F 24.1 °F 28.9 °F 96% 29.99 in 0.2 mi NE 5.8 mph - N/A Fog Light Freezing Fog
4:13 AM 28.9 °F 21.1 °F 28.0 °F 96% 29.95 in 0.5 mi North 8.1 mph - N/A Fog Light Freezing Fog
4:36 AM 28.9 °F 22.8 °F 28.0 °F 96% 29.96 in 0.8 mi North 5.8 mph - N/A   Mist
4:44 AM 28.9 °F 22.8 °F 27.0 °F 92% 29.96 in 0.8 mi North 5.8 mph - N/A   Mist
4:53 AM 28.9 °F 22.8 °F 27.0 °F 92% 30.03 in 0.8 mi North 5.8 mph - N/A   Mist
5:03 AM 28.9 °F 23.9 °F 28.0 °F 96% 29.97 in 0.5 mi North 4.6 mph - N/A Fog Light Freezing Fog
5:35 AM 28.9 °F 23.9 °F 28.0 °F 96% 29.97 in 0.5 mi NNE 4.6 mph - N/A Fog Light Freezing Fog
5:53 AM 28.9 °F 25.2 °F 27.0 °F 92% 30.05 in 0.5 mi NNE 3.5 mph - N/A Fog Light Freezing Fog
6:06 AM 28.9 °F 23.9 °F 27.0 °F 92% 29.97 in 0.8 mi North 4.6 mph - N/A   Mist
6:37 AM 28.9 °F 25.2 °F 27.0 °F 92% 29.98 in 0.5 mi NNE 3.5 mph - N/A Fog Light Freezing Fog
6:53 AM 28.9 °F 25.2 °F 27.0 °F 92% 30.07 in 0.5 mi NE 3.5 mph - N/A Fog Light Freezing Fog
7:04 AM 28.9 °F 22.8 °F 27.0 °F 92% 29.98 in 0.2 mi NE 5.8 mph - N/A Fog Light Freezing Fog
7:51 AM 28.4 °F - 28.4 °F 100% 29.99 in 0.2 mi Calm Calm - N/A Fog Light Freezing Fog
7:53 AM 28.9 °F - 28.0 °F 96% 30.08 in 0.2 mi Calm Calm - N/A Fog Light Freezing Fog
8:21 AM 28.9 °F 25.2 °F 27.0 °F 92% 30.00 in 0.2 mi ENE 3.5 mph - N/A Fog Light Freezing Fog
8:41 AM 28.9 °F - 28.0 °F 96% 30.00 in 0.2 mi Calm Calm - N/A Fog Light Freezing Fog
8:49 AM 28.4 °F - 28.4 °F 100% 30.00 in 0.5 mi Calm Calm - N/A Fog Light Freezing Fog
8:53 AM 28.9 °F - 28.0 °F 96% 30.09 in 0.5 mi Calm Calm - N/A Fog Light Freezing Fog
9:05 AM 28.9 °F - 28.0 °F 96% 30.01 in 1.0 mi Calm Calm - N/A   Mist
9:16 AM 28.9 °F - 28.0 °F 96% 30.01 in 2.0 mi Calm Calm - N/A   Overcast
9:31 AM 28.9 °F - 28.0 °F 96% 30.02 in 4.0 mi Calm Calm - N/A   Overcast
9:53 AM 30.0 °F - 28.0 °F 92% 30.11 in 9.0 mi Calm Calm - N/A   Overcast
10:53 AM 30.0 °F 26.5 °F 28.0 °F 92% 30.13 in 7.0 mi North 3.5 mph - N/A   Overcast
11:53 AM 30.9 °F - 28.9 °F 92% 30.14 in 10.0 mi Calm Calm - N/A   Overcast
12:24 PM 32.0 °F - 30.9 °F 96% 30.05 in 10.0 mi Calm Calm - N/A   Overcast
12:53 PM 32.0 °F - 30.0 °F 92% 30.13 in 10.0 mi Calm Calm - N/A   Overcast
1:53 PM 35.1 °F - 30.9 °F 85% 30.12 in 10.0 mi Calm Calm - N/A   Partly Cloudy
2:53 PM 39.9 °F - 33.1 °F 77% 30.11 in 10.0 mi Calm Calm - N/A   Clear
3:53 PM 44.1 °F 42.5 °F 32.0 °F 63% 30.11 in 10.0 mi NNW 3.5 mph - N/A   Clear
4:53 PM 39.0 °F 34.0 °F 33.1 °F 79% 30.16 in 10.0 mi WNW 6.9 mph - N/A   Mostly Cloudy
5:53 PM 36.0 °F 32.1 °F 32.0 °F 86% 30.18 in 10.0 mi West 4.6 mph - N/A   Overcast
6:53 PM 35.1 °F - 30.9 °F 85% 30.20 in 10.0 mi Calm Calm - N/A   Mostly Cloudy
7:53 PM 36.0 °F - 30.9 °F 82% 30.21 in 10.0 mi Calm Calm - N/A   Overcast
8:53 PM 35.1 °F 32.2 °F 30.9 °F 85% 30.23 in 10.0 mi SW 3.5 mph - N/A   Overcast
9:53 PM 36.0 °F 29.0 °F 28.9 °F 76% 30.24 in 10.0 mi WNW 9.2 mph - N/A   Overcast
10:53 PM 37.0 °F 30.4 °F 30.0 °F 76% 30.25 in 10.0 mi WNW 9.2 mph - N/A   Overcast
11:53 PM 37.9 °F 35.5 °F 30.0 °F 73% 30.24 in 10.0 mi NW 3.5 mph - N/A   Overcast